Location: Shepherdstown, WV
(39.4326°N, 77.8042°W)
Time: 04:57:50
(UTC-04:00)

Vanguard 1 - Pass Details

Date: 02 August 2021
Orbit: 652 x 3831 km, 34.3° (Epoch: 24 September)

Event Time Altitude Azimuth Distance (km) Brightness Sun altitude
Rises 13:52:12 0° 265° (W) 3,265 12.9 66.9°
Reaches altitude 10° 13:54:15 10° 261° (W) 2,507 12.5 66.7°
Maximum altitude 13:59:57 57° 183° (S) 1,370 12.9 66.3°
Drops below altitude 10° 14:09:57 10° 109° (ESE) 4,294 13.4 65.3°
Sets 14:14:35 0° 106° (ESE) 5,826 13.9 64.9°
